Regional Weather Roundup
Issued by NWS

Home | Current Version | Previous Version | Text Only | Print | Product List | Glossary Off
Versions: 1 2 3 4 5 6 7 8 9 10 11 12 13 14 15 16 17 18 19 20 21 22 23 24 25 26 27 28 29 30 31 32 33 34 35 36 37 38 39 40 41 42 43 44 45 46 47 48 49 50

000
ASUS43 KFSD 071310
RWRSD

WEATHER ROUNDUP FOR SOUTH DAKOTA
NATIONAL WEATHER SERVICE SIOUX FALLS SD
800 AM CDT TUE JUL 07 2015

NOTE: "FAIR" INDICATES FEW OR NO CLOUDS BELOW 12,000 FEET WITH NO
SIGNIFICANT WEATHER AND/OR OBSTRUCTIONS TO VISIBILITY.


SDZ001>005-009-010-012>017-071400-
NORTHWEST AND NORTH CENTRAL SOUTH DAKOTA

CITY           SKY/WX    TMP DP  RH WIND       PRES   REMARKS
BUFFALO          N/A     57  52  83 E5        30.08S
FAITH            N/A     57  53  86 SE12      30.15F
MOBRIDGE       SUNNY     57  53  86 E9        30.17S
$$

SDZ012>016-024>037-041>051-057-063-072>074-071400-
SOUTHWEST AND SOUTH CENTRAL SOUTH DAKOTA

CITY           SKY/WX    TMP DP  RH WIND       PRES   REMARKS
RAPID CTY ARPT SUNNY     58  56  93 SE6       30.15F
PIERRE         SUNNY     56  53  90 E7        30.16F FOG
CUSTER         PTSUNNY   54  51  90 CALM      30.24S FOG
ELLSWORTH AFB  SUNNY     59  58  96 S5        30.14F
PHILIP         MOSUNNY   58  56  93 E6        30.16S FOG
PINE RIDGE     PTSUNNY   60  53  77 SW3       30.18S
SPEARFISH      FAIR      59  54  82 NE3       30.15F
WINNER         FAIR      59  54  83 SE7       30.18S HAZE
$$

SDZ004>011-016>023-039-040-071400-
NORTHEAST SOUTH DAKOTA

CITY           SKY/WX    TMP DP  RH WIND       PRES   REMARKS
ABERDEEN       SUNNY     57  50  77 E8        30.20S
WATERTOWN      SUNNY     54  48  80 NE6       30.20R
BROOKINGS      SUNNY     54  45  71 NE7       30.21R
SISSETON         N/A     56  49  77 N3        30.21R
$$

SDZ017-020-022-023-036>040-048>070-071400-
SOUTHEAST SOUTH DAKOTA

CITY           SKY/WX    TMP DP  RH WIND       PRES   REMARKS
SIOUX FALLS    MOSUNNY   55  49  80 NE7       30.20R
HURON          SUNNY     56  52  86 E9        30.20R
CHAMBERLAIN    SUNNY     56  53  92 E5        30.19S
MITCHELL       SUNNY     57  54  89 E6        30.21R
YANKTON        MOSUNNY   57  48  72 NE5       30.19R
$$

ABBREVIATIONS USED IN REMARKS
   TC - TEMPERATURE IN CELSIUS
  WCI - WIND CHILL INDEX
   HX - HEAT INDEX
  VSB - VISIBILITY



USA.gov is the U.S. government's official web portal to all federal, state and local government web resources and services.